User: anonymous   Login
Location: Summit Observatory
(39.5293°N, 75.7290°W)
Time: 11:57:28
(UTC-04:00)
Language:

XW-2F - Orbit

View from above orbital plane
View from above orbital plane
View from above satellite
View from above satellite

Ground track
Ground track

The orbit data is extracted from the following two-line orbital elements,

1 40910U 15049M   19116.24736318  .00001030  00000-0  55133-4 0  9990
2 40910  97.4622 120.7740 0015718  22.0401  38.2545 15.17178901198913
Epoch (UTC): 26 April 2019 05:56:12
Eccentricity: 0.0015718
inclination: 97.4622°
perigee height: 503 km
apogee height: 525 km
right ascension of ascending node: 120.7740°
argument of perigee: 22.0401°
revolutions per day: 15.17178901
mean anomaly at epoch: 38.2545°
orbit number at epoch: 19891

The dashed part of the orbit path shows where the satellite is in the earth's shadow,  

DLR